STARLINK-1835 (46782 NORAD) Tracking and Keplerian Element Data

This shows tracking and keplerian element data for the satellite.

Feedback or suggestion? Click here.




ElementValue
Catalog46782
NameSTARLINK-1835
Epoch Orbit181
Epoch Day330.91667824
Epoch Year2020
RAAN2.0056
Inclination53.055
Eccentricity0.0001092
Argument of Perigee66.4149
Mean Anonmoly171.7498
Mean Motion15.6276156
Decay Rate4.754E-05
L11 46782U 20074AV 20330.91667824 .00004754 00000-0 57699-4 0 9991
L22 46782 53.0550 2.0056 0001092 66.4149 171.7498 15.62761560 1818

Live tracking and technical data element details for STARLINK-1835 (NORAD 46782). STARLINK-1835 can be tracked NOW for your location showing map with azimuth and elevation plus other details from your city location.

Track the satellite on the map from your city or location and see movement details for azimuth, elevation, latitude, longitude, range, height, and movement on the map or in text.







IsCatalogInMostPopularTable: catalog: 46782, numindb: 6
Update: records affected: 1



GetName: 46782 STARLINK-1835

Hit Count: updated at: Thu, 26 Nov 2020 17:54:38 GMT